WZZ6845 EPWA-LDDU

Flight info

Callsign WZZ6845
Flight time 1h 37m
Altitude 38000
Route EVINA M66 BABKO/N0442F370 DCT BALAP/N0445F380 DCT BAREB/N0440F370 DCT CE DCT ADULA DCT VIBOP/N0444F380 DCT NETKO
Aircraft A21N/M-SDE1E2E3FGIJ1J4RWXY/LB1

Departure

Time 2026-05-05 18:49
Airport Warsaw Chopin Airport (EPWA)

Arrival

Time 2026-05-05 20:26
Airport Dubrovnik Ruđer Bošković Airport (LDDU)
Time Latitude Longitude Altitude Speed Heading
2026-05-05 18:09 52.17899 20.96206 338 ft 0 kts 332°
2026-05-05 18:15 52.17899 20.96205 338 ft 0 kts 332°
2026-05-05 18:31 52.17899 20.96206 338 ft 0 kts 332°
2026-05-05 18:37 52.17897 20.96206 338 ft 1 kts 333°
2026-05-05 18:38 52.17884 20.96218 338 ft 2 kts 332°
2026-05-05 18:38 52.17871 20.96229 338 ft 2 kts 333°
2026-05-05 18:38 52.17862 20.96236 337 ft 2 kts 332°
2026-05-05 18:38 52.17852 20.96254 337 ft 2 kts 289°
2026-05-05 18:39 52.17851 20.96278 337 ft 2 kts 256°
2026-05-05 18:39 52.17853 20.96290 337 ft 0 kts 238°
2026-05-05 18:39 52.17856 20.96298 337 ft 0 kts 242°
2026-05-05 18:43 52.17853 20.96290 337 ft 2 kts 242°
2026-05-05 18:43 52.17828 20.96208 337 ft 11 kts 243°
2026-05-05 18:43 52.17793 20.96104 338 ft 9 kts 232°
2026-05-05 18:43 52.17736 20.96098 338 ft 9 kts 156°
2026-05-05 18:44 52.17670 20.96154 337 ft 11 kts 152°
2026-05-05 18:44 52.17592 20.96221 336 ft 13 kts 152°
2026-05-05 18:44 52.17503 20.96300 335 ft 15 kts 152°
2026-05-05 18:44 52.17407 20.96384 335 ft 15 kts 152°
2026-05-05 18:45 52.17310 20.96473 334 ft 16 kts 150°
2026-05-05 18:45 52.17203 20.96562 334 ft 17 kts 151°
2026-05-05 18:45 52.17091 20.96659 332 ft 19 kts 152°
2026-05-05 18:45 52.16971 20.96765 331 ft 20 kts 152°
2026-05-05 18:46 52.16845 20.96873 332 ft 19 kts 152°
2026-05-05 18:46 52.16734 20.96970 333 ft 17 kts 151°
2026-05-05 18:46 52.16650 20.97106 336 ft 19 kts 116°
2026-05-05 18:46 52.16585 20.97329 337 ft 22 kts 115°
2026-05-05 18:47 52.16522 20.97554 337 ft 21 kts 115°
2026-05-05 18:47 52.16460 20.97769 336 ft 17 kts 121°
2026-05-05 18:47 52.16395 20.97795 335 ft 10 kts 207°
2026-05-05 18:47 52.16345 20.97753 334 ft 13 kts 207°
2026-05-05 18:48 52.16304 20.97674 334 ft 0 kts 300°
2026-05-05 18:48 52.16307 20.97665 334 ft 1 kts 295°
2026-05-05 18:48 52.16380 20.97403 337 ft 64 kts 294°
2026-05-05 18:48 52.16675 20.96352 334 ft 135 kts 295°
2026-05-05 18:49 52.17128 20.94757 563 ft 167 kts 294°
2026-05-05 18:49 52.17628 20.93063 1188 ft 169 kts 291°
2026-05-05 18:49 52.18118 20.91329 1870 ft 170 kts 286°
2026-05-05 18:49 52.18258 20.89461 2447 ft 171 kts 257°
2026-05-05 18:50 52.17995 20.87525 2884 ft 182 kts 253°
2026-05-05 18:50 52.17681 20.85439 3201 ft 198 kts 254°
2026-05-05 18:50 52.17160 20.83321 3543 ft 212 kts 230°
2026-05-05 18:50 52.15859 20.81958 3857 ft 233 kts 202°
2026-05-05 18:51 52.14256 20.81114 4305 ft 250 kts 199°
2026-05-05 18:51 52.12588 20.80269 4979 ft 257 kts 200°
2026-05-05 18:51 52.10881 20.79355 5809 ft 258 kts 201°
2026-05-05 18:51 52.09205 20.78412 6609 ft 261 kts 202°
2026-05-05 18:52 52.07479 20.77405 7430 ft 263 kts 202°
2026-05-05 18:52 52.05768 20.76386 8227 ft 265 kts 202°
2026-05-05 18:52 52.04054 20.75353 9048 ft 267 kts 202°
2026-05-05 18:52 52.02315 20.74301 9820 ft 269 kts 202°
2026-05-05 18:53 52.00552 20.73231 10407 ft 278 kts 202°
2026-05-05 18:53 51.98690 20.72099 10815 ft 292 kts 202°
2026-05-05 18:53 51.96772 20.70931 11499 ft 297 kts 202°
2026-05-05 18:53 51.94845 20.69758 12225 ft 299 kts 202°
2026-05-05 18:54 51.92899 20.68575 12911 ft 301 kts 202°
2026-05-05 18:54 51.90942 20.67384 13621 ft 303 kts 202°
2026-05-05 18:54 51.88970 20.66184 14320 ft 306 kts 202°
2026-05-05 18:54 51.86979 20.64972 14936 ft 310 kts 202°
2026-05-05 18:55 51.84956 20.63743 15508 ft 314 kts 202°
2026-05-05 18:55 51.82908 20.62499 16098 ft 318 kts 202°
2026-05-05 18:55 51.80835 20.61243 16666 ft 322 kts 202°
2026-05-05 18:55 51.78734 20.59970 17214 ft 326 kts 202°
2026-05-05 18:56 51.76601 20.58682 17752 ft 330 kts 201°
2026-05-05 18:56 51.74392 20.57441 18286 ft 335 kts 200°
2026-05-05 18:56 51.72181 20.56253 18821 ft 338 kts 200°
2026-05-05 18:56 51.69949 20.55058 19350 ft 341 kts 200°
2026-05-05 18:57 51.67691 20.53845 19864 ft 345 kts 200°
2026-05-05 18:57 51.65414 20.52619 20363 ft 348 kts 200°
2026-05-05 18:57 51.63117 20.51380 20853 ft 351 kts 200°
2026-05-05 18:57 51.60806 20.50134 21347 ft 354 kts 200°
2026-05-05 18:58 51.58454 20.48865 21825 ft 357 kts 200°
2026-05-05 18:58 51.56092 20.47591 22286 ft 360 kts 200°
2026-05-05 18:58 51.53708 20.46307 22743 ft 363 kts 200°
2026-05-05 18:58 51.51311 20.45016 23190 ft 366 kts 200°
2026-05-05 18:59 51.48894 20.43717 23636 ft 369 kts 200°
2026-05-05 18:59 51.46445 20.42402 24070 ft 372 kts 200°
2026-05-05 18:59 51.44009 20.41095 24497 ft 375 kts 200°
2026-05-05 18:59 51.41510 20.39756 24915 ft 378 kts 200°
2026-05-05 19:00 51.39016 20.38421 25322 ft 380 kts 200°
2026-05-05 19:00 51.36506 20.37079 25730 ft 383 kts 200°
2026-05-05 19:00 51.33980 20.35730 26121 ft 386 kts 200°
2026-05-05 19:00 51.31437 20.34373 26511 ft 388 kts 199°
2026-05-05 19:01 51.28863 20.33001 26886 ft 391 kts 199°
2026-05-05 19:01 51.26289 20.31629 27261 ft 393 kts 199°
2026-05-05 19:01 51.23694 20.30251 27625 ft 395 kts 200°
2026-05-05 19:01 51.21065 20.28854 27996 ft 398 kts 200°
2026-05-05 19:02 51.18436 20.27459 28345 ft 400 kts 200°
2026-05-05 19:02 51.15789 20.26057 28706 ft 402 kts 200°
2026-05-05 19:02 51.13136 20.24653 29058 ft 405 kts 200°
2026-05-05 19:02 51.10468 20.23243 29399 ft 407 kts 200°
2026-05-05 19:03 51.07783 20.21825 29718 ft 409 kts 200°
2026-05-05 19:03 51.05052 20.20386 30044 ft 412 kts 200°
2026-05-05 19:03 51.02322 20.18946 30351 ft 415 kts 200°
2026-05-05 19:03 50.99572 20.17502 30662 ft 417 kts 200°
2026-05-05 19:04 50.96798 20.16044 30984 ft 419 kts 200°
2026-05-05 19:04 50.93953 20.14551 31309 ft 421 kts 200°
2026-05-05 19:04 50.91159 20.13088 31624 ft 423 kts 200°
2026-05-05 19:04 50.88339 20.11613 31926 ft 425 kts 200°
2026-05-05 19:05 50.85527 20.10142 32213 ft 427 kts 200°
2026-05-05 19:05 50.82711 20.08674 32509 ft 429 kts 200°
2026-05-05 19:05 50.79881 20.07200 32815 ft 430 kts 200°
2026-05-05 19:05 50.77044 20.05722 33189 ft 429 kts 200°
2026-05-05 19:06 50.74225 20.04258 33583 ft 428 kts 200°
2026-05-05 19:06 50.71415 20.02797 33963 ft 426 kts 200°
2026-05-05 19:06 50.68606 20.01341 34315 ft 426 kts 200°
2026-05-05 19:06 50.65786 19.99881 34652 ft 425 kts 200°
2026-05-05 19:07 50.62988 19.98434 34948 ft 425 kts 200°
2026-05-05 19:07 50.60190 19.96988 35231 ft 425 kts 200°
2026-05-05 19:07 50.57390 19.95542 35494 ft 424 kts 200°
2026-05-05 19:07 50.54595 19.94102 35734 ft 424 kts 200°
2026-05-05 19:08 50.48985 19.91218 35779 ft 423 kts 200°
2026-05-05 19:08 50.43409 19.88356 35798 ft 422 kts 200°
2026-05-05 19:09 50.37844 19.85505 35794 ft 422 kts 200°
2026-05-05 19:09 50.32289 19.82669 35793 ft 422 kts 200°
2026-05-05 19:10 50.26725 19.79836 35801 ft 422 kts 200°
2026-05-05 19:10 50.21160 19.77006 35813 ft 423 kts 200°
2026-05-05 19:11 50.15583 19.74180 35808 ft 423 kts 200°
2026-05-05 19:11 50.10001 19.71358 35808 ft 423 kts 200°
2026-05-05 19:12 50.04369 19.68516 35810 ft 423 kts 200°
2026-05-05 19:12 49.98795 19.65712 35807 ft 422 kts 200°
2026-05-05 19:13 49.93221 19.62913 35812 ft 423 kts 200°
2026-05-05 19:13 49.87626 19.60113 35823 ft 424 kts 200°
2026-05-05 19:14 49.82038 19.57322 35828 ft 423 kts 200°
2026-05-05 19:14 49.76448 19.54534 35829 ft 424 kts 200°
2026-05-05 19:15 49.70849 19.51749 35843 ft 424 kts 200°
2026-05-05 19:15 49.65237 19.48993 35850 ft 424 kts 198°
2026-05-05 19:16 49.59512 19.46933 35853 ft 425 kts 192°
2026-05-05 19:16 49.53618 19.45849 35864 ft 426 kts 187°
2026-05-05 19:17 49.47750 19.44997 35872 ft 426 kts 188°
2026-05-05 19:17 49.41840 19.44135 35871 ft 427 kts 187°
2026-05-05 19:18 49.35948 19.43278 35872 ft 427 kts 187°
2026-05-05 19:18 49.30056 19.42424 35878 ft 427 kts 187°
2026-05-05 19:19 49.24166 19.41572 35880 ft 426 kts 187°
2026-05-05 19:19 49.18284 19.40722 35926 ft 429 kts 187°
2026-05-05 19:20 49.15341 19.40298 36158 ft 429 kts 187°
2026-05-05 19:20 49.12389 19.39874 36437 ft 427 kts 187°
2026-05-05 19:20 49.09441 19.39450 36673 ft 427 kts 187°
2026-05-05 19:20 49.06487 19.39026 36873 ft 429 kts 187°
2026-05-05 19:21 49.00513 19.38170 36886 ft 431 kts 187°
2026-05-05 19:21 48.94590 19.37325 36890 ft 431 kts 187°
2026-05-05 19:22 48.88628 19.36474 36887 ft 432 kts 187°
2026-05-05 19:22 48.82659 19.35625 36886 ft 432 kts 187°
2026-05-05 19:23 48.76701 19.34779 36888 ft 432 kts 187°
2026-05-05 19:23 48.70664 19.33924 36893 ft 432 kts 186°
2026-05-05 19:24 48.64693 19.33081 36892 ft 433 kts 187°
2026-05-05 19:24 48.58718 19.32240 36892 ft 433 kts 187°
2026-05-05 19:25 48.52734 19.31399 36893 ft 433 kts 187°
2026-05-05 19:25 48.46766 19.30561 36896 ft 434 kts 187°
2026-05-05 19:26 48.40784 19.29724 36892 ft 434 kts 187°
2026-05-05 19:26 48.34785 19.28886 36887 ft 434 kts 187°
2026-05-05 19:27 48.28792 19.28050 36887 ft 434 kts 187°
2026-05-05 19:27 48.22763 19.27213 36889 ft 434 kts 187°
2026-05-05 19:28 48.16757 19.26380 36885 ft 435 kts 187°
2026-05-05 19:28 48.13743 19.25962 36989 ft 438 kts 187°
2026-05-05 19:28 48.10726 19.25544 37275 ft 437 kts 187°
2026-05-05 19:29 48.07726 19.24991 37553 ft 436 kts 190°
2026-05-05 19:29 48.04754 19.24189 37760 ft 435 kts 193°
2026-05-05 19:29 47.98871 19.22033 37857 ft 437 kts 195°
2026-05-05 19:30 47.92990 19.19826 37861 ft 437 kts 195°
2026-05-05 19:30 47.87103 19.17620 37869 ft 438 kts 195°
2026-05-05 19:31 47.81208 19.15418 37879 ft 439 kts 195°
2026-05-05 19:31 47.75306 19.13219 37886 ft 439 kts 195°
2026-05-05 19:32 47.69397 19.11022 37891 ft 439 kts 195°
2026-05-05 19:32 47.63483 19.08830 37892 ft 440 kts 195°
2026-05-05 19:33 47.57563 19.06641 37897 ft 440 kts 195°
2026-05-05 19:33 47.51648 19.04457 37893 ft 439 kts 196°
2026-05-05 19:34 47.45732 19.02279 37895 ft 439 kts 196°
2026-05-05 19:35 47.36848 18.99015 37886 ft 440 kts 196°
2026-05-05 19:35 47.30916 18.96842 37881 ft 440 kts 196°
2026-05-05 19:36 47.24987 18.94676 37877 ft 440 kts 196°
2026-05-05 19:36 47.19047 18.92511 37875 ft 441 kts 195°
2026-05-05 19:37 47.13108 18.90352 37872 ft 441 kts 195°
2026-05-05 19:37 47.07173 18.88200 37873 ft 441 kts 196°
2026-05-05 19:38 47.01234 18.86050 37873 ft 441 kts 196°
2026-05-05 19:38 46.95231 18.83882 37870 ft 441 kts 196°
2026-05-05 19:39 46.89264 18.81733 37878 ft 441 kts 196°
2026-05-05 19:39 46.83313 18.79593 37888 ft 442 kts 196°
2026-05-05 19:40 46.77368 18.77459 37893 ft 442 kts 196°
2026-05-05 19:40 46.71418 18.75331 37892 ft 442 kts 196°
2026-05-05 19:41 46.65478 18.73212 37892 ft 441 kts 196°
2026-05-05 19:41 46.59516 18.71088 37895 ft 441 kts 196°
2026-05-05 19:42 46.53554 18.68968 37897 ft 441 kts 196°
2026-05-05 19:42 46.47551 18.66839 37897 ft 442 kts 196°
2026-05-05 19:43 46.41592 18.64731 37892 ft 442 kts 196°
2026-05-05 19:43 46.35625 18.62623 37896 ft 443 kts 196°
2026-05-05 19:44 46.29610 18.60505 37893 ft 443 kts 196°
2026-05-05 19:44 46.23655 18.58411 37902 ft 443 kts 196°
2026-05-05 19:45 46.17659 18.56308 37901 ft 443 kts 197°
2026-05-05 19:45 46.11685 18.54218 37908 ft 443 kts 197°
2026-05-05 19:46 46.05718 18.52136 37907 ft 444 kts 197°
2026-05-05 19:46 45.99723 18.50046 37909 ft 444 kts 197°
2026-05-05 19:47 45.93738 18.47965 37919 ft 444 kts 197°
2026-05-05 19:47 45.87751 18.45888 37925 ft 444 kts 197°
2026-05-05 19:48 45.81702 18.43919 37919 ft 445 kts 192°
2026-05-05 19:48 45.75509 18.43545 37916 ft 450 kts 179°
2026-05-05 19:49 45.69348 18.45230 37920 ft 456 kts 165°
2026-05-05 19:49 45.63482 18.48768 37923 ft 459 kts 157°
2026-05-05 19:50 45.57733 18.52698 37923 ft 459 kts 158°
2026-05-05 19:50 45.51827 18.56018 37930 ft 457 kts 165°
2026-05-05 19:51 45.45667 18.58319 37930 ft 456 kts 171°
2026-05-05 19:51 45.39488 18.60266 37928 ft 456 kts 171°
2026-05-05 19:52 45.33258 18.62238 37926 ft 456 kts 171°
2026-05-05 19:52 45.27063 18.64202 37930 ft 457 kts 171°
2026-05-05 19:53 45.20869 18.66162 37932 ft 457 kts 171°
2026-05-05 19:53 45.14634 18.68128 37932 ft 458 kts 171°
2026-05-05 19:54 45.08441 18.70060 37930 ft 457 kts 172°
2026-05-05 19:54 45.02146 18.70907 37929 ft 452 kts 184°
2026-05-05 19:55 44.95955 18.69935 37936 ft 446 kts 196°
2026-05-05 19:55 44.90093 18.67303 37949 ft 441 kts 206°
2026-05-05 19:56 44.84404 18.64084 37946 ft 440 kts 206°
2026-05-05 19:56 44.78652 18.60834 37958 ft 441 kts 206°
2026-05-05 19:57 44.73001 18.57660 37963 ft 441 kts 206°
2026-05-05 19:57 44.67271 18.54460 37971 ft 441 kts 206°
2026-05-05 19:58 44.61605 18.51303 37980 ft 441 kts 206°
2026-05-05 19:58 44.55907 18.48137 37989 ft 440 kts 206°
2026-05-05 19:59 44.50120 18.44929 37989 ft 440 kts 206°
2026-05-05 19:59 44.44401 18.41765 37779 ft 441 kts 206°
2026-05-05 19:59 44.41588 18.40213 37460 ft 439 kts 206°
2026-05-05 20:00 44.38745 18.38647 37135 ft 435 kts 207°
2026-05-05 20:00 44.35948 18.37105 36814 ft 432 kts 207°
2026-05-05 20:00 44.33184 18.35582 36511 ft 431 kts 207°
2026-05-05 20:00 44.30366 18.34031 36247 ft 432 kts 206°
2026-05-05 20:01 44.27597 18.32508 35968 ft 432 kts 206°
2026-05-05 20:01 44.24769 18.30953 35503 ft 434 kts 206°
2026-05-05 20:01 44.21986 18.29427 34900 ft 436 kts 206°
2026-05-05 20:01 44.19173 18.27885 34164 ft 439 kts 207°
2026-05-05 20:02 44.16300 18.26309 33391 ft 442 kts 206°
2026-05-05 20:02 44.13479 18.24764 32870 ft 438 kts 206°
2026-05-05 20:02 44.10650 18.23222 32417 ft 433 kts 206°
2026-05-05 20:02 44.07847 18.21695 31975 ft 428 kts 206°
2026-05-05 20:03 44.05081 18.20188 31512 ft 424 kts 206°
2026-05-05 20:03 44.02380 18.18716 31073 ft 420 kts 206°
2026-05-05 20:03 43.99642 18.17227 30612 ft 416 kts 206°
2026-05-05 20:03 43.96997 18.15790 30165 ft 412 kts 206°
2026-05-05 20:04 43.94332 18.14342 29709 ft 409 kts 205°
2026-05-05 20:04 43.91691 18.12908 29250 ft 406 kts 206°
2026-05-05 20:04 43.89086 18.11498 28789 ft 403 kts 205°
2026-05-05 20:04 43.86480 18.10085 28316 ft 400 kts 205°
2026-05-05 20:05 43.83902 18.08692 27874 ft 396 kts 205°
2026-05-05 20:05 43.81359 18.07317 27437 ft 393 kts 205°
2026-05-05 20:05 43.78828 18.05950 26998 ft 390 kts 205°
2026-05-05 20:05 43.76302 18.04586 26555 ft 387 kts 205°
2026-05-05 20:06 43.73805 18.03242 26106 ft 385 kts 205°
2026-05-05 20:06 43.71342 18.01916 25672 ft 382 kts 205°
2026-05-05 20:06 43.68858 18.00580 25238 ft 379 kts 205°
2026-05-05 20:06 43.66412 17.99264 24799 ft 377 kts 205°
2026-05-05 20:07 43.63927 17.97929 24346 ft 375 kts 205°
2026-05-05 20:07 43.61484 17.96618 23903 ft 373 kts 205°
2026-05-05 20:07 43.59080 17.95327 23458 ft 371 kts 205°
2026-05-05 20:07 43.56703 17.94055 23027 ft 369 kts 205°
2026-05-05 20:08 43.54314 17.92777 22592 ft 367 kts 205°
2026-05-05 20:08 43.51928 17.91500 22155 ft 366 kts 205°
2026-05-05 20:08 43.49572 17.90239 21718 ft 364 kts 205°
2026-05-05 20:08 43.47239 17.88994 21284 ft 362 kts 205°
2026-05-05 20:09 43.44871 17.87732 20845 ft 361 kts 204°
2026-05-05 20:09 43.42550 17.86493 20409 ft 359 kts 204°
2026-05-05 20:09 43.40231 17.85259 19975 ft 357 kts 204°
2026-05-05 20:09 43.37916 17.84027 19536 ft 356 kts 204°
2026-05-05 20:10 43.35612 17.82803 19098 ft 354 kts 204°
2026-05-05 20:10 43.33332 17.81591 18665 ft 352 kts 204°
2026-05-05 20:10 43.31056 17.80382 18230 ft 351 kts 204°
2026-05-05 20:10 43.28783 17.79176 17793 ft 349 kts 204°
2026-05-05 20:11 43.26505 17.77969 17354 ft 347 kts 204°
2026-05-05 20:11 43.24270 17.76788 16923 ft 346 kts 204°
2026-05-05 20:11 43.22016 17.75594 16485 ft 344 kts 204°
2026-05-05 20:11 43.19791 17.74418 16052 ft 343 kts 204°
2026-05-05 20:12 43.17574 17.73246 15620 ft 341 kts 204°
2026-05-05 20:12 43.15371 17.72083 15185 ft 340 kts 204°
2026-05-05 20:12 43.13173 17.70921 14746 ft 338 kts 204°
2026-05-05 20:12 43.10957 17.69753 14303 ft 336 kts 204°
2026-05-05 20:13 43.08800 17.68616 13872 ft 335 kts 204°
2026-05-05 20:13 43.06624 17.67471 13438 ft 333 kts 204°
2026-05-05 20:13 43.04474 17.66210 12995 ft 331 kts 208°
2026-05-05 20:13 43.02479 17.64730 12583 ft 327 kts 213°
2026-05-05 20:14 43.00540 17.63070 12155 ft 325 kts 214°
2026-05-05 20:14 42.98653 17.61424 11731 ft 324 kts 215°
2026-05-05 20:14 42.96753 17.59765 11338 ft 320 kts 214°
2026-05-05 20:14 42.94902 17.58157 11204 ft 308 kts 214°
2026-05-05 20:15 42.93134 17.56628 11086 ft 296 kts 214°
2026-05-05 20:15 42.91263 17.55508 10847 ft 291 kts 190°
2026-05-05 20:15 42.89302 17.55804 10593 ft 288 kts 158°
2026-05-05 20:15 42.87722 17.57390 10282 ft 285 kts 134°
2026-05-05 20:16 42.86427 17.59434 9954 ft 282 kts 130°
2026-05-05 20:16 42.85174 17.61472 9617 ft 279 kts 131°
2026-05-05 20:16 42.83899 17.63434 9285 ft 271 kts 133°
2026-05-05 20:16 42.82634 17.65277 8966 ft 263 kts 135°
2026-05-05 20:17 42.81382 17.67051 8661 ft 259 kts 135°
2026-05-05 20:17 42.80138 17.68788 8354 ft 256 kts 136°
2026-05-05 20:17 42.78893 17.70518 8044 ft 253 kts 136°
2026-05-05 20:17 42.77722 17.72286 7738 ft 251 kts 129°
2026-05-05 20:18 42.76779 17.74258 7420 ft 250 kts 120°
2026-05-05 20:18 42.76015 17.76412 7013 ft 253 kts 116°
2026-05-05 20:18 42.75272 17.78596 6570 ft 255 kts 117°
2026-05-05 20:18 42.74502 17.80761 6193 ft 255 kts 119°
2026-05-05 20:19 42.73707 17.82891 5858 ft 252 kts 120°
2026-05-05 20:19 42.72900 17.84977 5531 ft 246 kts 121°
2026-05-05 20:19 42.72094 17.87008 5225 ft 238 kts 121°
2026-05-05 20:19 42.71315 17.88914 5070 ft 224 kts 122°
2026-05-05 20:20 42.70591 17.90672 5040 ft 205 kts 121°
2026-05-05 20:20 42.69907 17.92339 5048 ft 201 kts 122°
2026-05-05 20:20 42.69234 17.93988 5060 ft 200 kts 121°
2026-05-05 20:20 42.68560 17.95651 5063 ft 201 kts 121°
2026-05-05 20:21 42.67890 17.97315 4906 ft 200 kts 121°
2026-05-05 20:21 42.67224 17.98977 4644 ft 199 kts 121°
2026-05-05 20:21 42.66565 18.00628 4378 ft 197 kts 121°
2026-05-05 20:21 42.65918 18.02249 4118 ft 196 kts 120°
2026-05-05 20:22 42.65271 18.03870 3861 ft 195 kts 120°
2026-05-05 20:22 42.64625 18.05488 3603 ft 194 kts 120°
2026-05-05 20:22 42.63988 18.07087 3351 ft 193 kts 120°
2026-05-05 20:22 42.63356 18.08672 3099 ft 191 kts 119°
2026-05-05 20:23 42.62725 18.10257 2847 ft 189 kts 119°
2026-05-05 20:23 42.62101 18.11823 2599 ft 190 kts 119°
2026-05-05 20:23 42.61498 18.13339 2432 ft 178 kts 118°
2026-05-05 20:23 42.60924 18.14780 2161 ft 167 kts 118°
2026-05-05 20:24 42.60398 18.16102 1942 ft 150 kts 118°
2026-05-05 20:24 42.59925 18.17288 1717 ft 136 kts 118°
2026-05-05 20:24 42.59485 18.18395 1538 ft 132 kts 118°
2026-05-05 20:24 42.59046 18.19498 1381 ft 132 kts 118°
2026-05-05 20:25 42.58611 18.20590 1218 ft 132 kts 117°
2026-05-05 20:25 42.58181 18.21674 1047 ft 131 kts 117°
2026-05-05 20:25 42.57747 18.22760 871 ft 131 kts 117°
2026-05-05 20:25 42.57312 18.23849 700 ft 130 kts 116°
2026-05-05 20:26 42.56887 18.24933 549 ft 130 kts 117°
2026-05-05 20:26 42.56498 18.25913 524 ft 97 kts 117°
2026-05-05 20:26 42.56261 18.26506 519 ft 48 kts 117°
2026-05-05 20:26 42.56148 18.26793 517 ft 31 kts 117°
2026-05-05 20:27 42.56045 18.27052 511 ft 30 kts 117°
2026-05-05 20:27 42.55946 18.27290 504 ft 24 kts 134°
2026-05-05 20:27 42.55819 18.27342 504 ft 13 kts 173°
2026-05-05 20:27 42.55772 18.27273 505 ft 11 kts 291°
2026-05-05 20:28 42.55812 18.27167 507 ft 16 kts 298°
2026-05-05 20:28 42.55880 18.26996 511 ft 24 kts 298°
2026-05-05 20:28 42.55967 18.26778 513 ft 25 kts 298°
2026-05-05 20:28 42.56050 18.26571 515 ft 23 kts 297°
2026-05-05 20:29 42.56115 18.26403 518 ft 18 kts 298°
2026-05-05 20:29 42.56148 18.26289 519 ft 9 kts 229°
2026-05-05 20:29 42.56108 18.26254 518 ft 0 kts 208°